Time,TemperatureF,DewpointF,PressureIn,WindDirection,WindDirectionDegrees,WindSpeedMPH,WindSpeedGustMPH,Humidity,HourlyPrecipIn,Conditions,Clouds,dailyrainin,SoftwareType,DateUTC
2013-05-01 00:03:00,69.0,66.0,30.03,SSE,155,5.0,6.0,92,-99.99,,,-99.99,,2013-05-01 04:03:00,
2013-05-01 00:12:00,69.0,67.0,30.02,WNW,292,3.0,5.0,92,-99.99,,,-99.99,,2013-05-01 04:12:00,
2013-05-01 00:22:00,69.0,67.0,30.02,WNW,292,3.0,5.0,92,-99.99,,,-99.99,,2013-05-01 04:22:00,
2013-05-01 00:32:00,68.0,65.0,30.02,SE,140,2.0,4.0,92,-99.99,,,-99.99,,2013-05-01 04:32:00,
2013-05-01 00:43:00,68.0,65.0,30.02,SE,140,2.0,4.0,92,-99.99,,,-99.99,,2013-05-01 04:43:00,
2013-05-01 00:52:00,67.0,65.0,30.02,SE,127,3.0,3.0,92,-99.99,,,-99.99,,2013-05-01 04:52:00,
2013-05-01 01:02:00,67.0,65.0,30.02,SE,127,3.0,3.0,92,-99.99,,,-99.99,,2013-05-01 05:02:00,
2013-05-01 01:12:00,67.0,65.0,30.01,ENE,58,3.0,4.0,92,-99.99,,,-99.99,,2013-05-01 05:12:00,
2013-05-01 01:22:00,67.0,65.0,30.01,ENE,58,3.0,4.0,92,-99.99,,,-99.99,,2013-05-01 05:22:00,
2013-05-01 01:32:00,68.0,66.0,30.01,NE,42,3.0,5.0,92,-99.99,,,-99.99,,2013-05-01 05:32:00,
2013-05-01 01:42:00,68.0,66.0,30.01,NE,42,3.0,5.0,92,-99.99,,,-99.99,,2013-05-01 05:42:00,
2013-05-01 01:52:00,68.0,66.0,30.01,NE,35,4.0,5.0,92,-99.99,,,-99.99,,2013-05-01 05:52:00,
2013-05-01 02:02:00,69.0,66.0,30.00,NE,52,4.0,7.0,93,-99.99,,,-99.99,,2013-05-01 06:02:00,
2013-05-01 02:12:00,69.0,66.0,30.00,NE,52,4.0,7.0,93,-99.99,,,-99.99,,2013-05-01 06:12:00,
2013-05-01 02:22:00,69.0,66.0,30.00,NE,52,4.0,7.0,93,-99.99,,,-99.99,,2013-05-01 06:22:00,
2013-05-01 02:32:00,69.0,67.0,30.00,ENE,60,2.0,3.0,93,-99.99,,,-99.99,,2013-05-01 06:32:00,
2013-05-01 02:42:00,69.0,67.0,30.00,ENE,60,2.0,3.0,93,-99.99,,,-99.99,,2013-05-01 06:42:00,
2013-05-01 02:52:00,68.0,66.0,30.00,ENE,64,2.0,3.0,93,-99.99,,,-99.99,,2013-05-01 06:52:00,
2013-05-01 03:01:00,68.0,66.0,30.00,ENE,64,2.0,3.0,93,-99.99,,,-99.99,,2013-05-01 07:01:00,
2013-05-01 03:11:00,68.0,66.0,29.99,NE,49,2.0,4.0,93,-99.99,,,-99.99,,2013-05-01 07:11:00,
2013-05-01 03:22:00,68.0,66.0,29.99,NE,49,2.0,4.0,93,-99.99,,,-99.99,,2013-05-01 07:22:00,
2013-05-01 03:32:00,68.0,66.0,29.98,NE,51,4.0,6.0,93,-99.99,,,-99.99,,2013-05-01 07:32:00,
2013-05-01 03:42:00,68.0,66.0,29.97,ENE,60,4.0,6.0,93,-99.99,,,-99.99,,2013-05-01 07:42:00,
2013-05-01 03:52:00,68.0,66.0,29.97,ENE,60,4.0,6.0,93,-99.99,,,-99.99,,2013-05-01 07:52:00,
2013-05-01 04:02:00,68.0,66.0,29.96,NE,51,4.0,6.0,93,-99.99,,,-99.99,,2013-05-01 08:02:00,
2013-05-01 04:12:00,68.0,66.0,29.96,NE,51,4.0,6.0,93,-99.99,,,-99.99,,2013-05-01 08:12:00,
2013-05-01 04:22:00,68.0,66.0,29.96,NE,51,4.0,6.0,93,-99.99,,,-99.99,,2013-05-01 08:22:00,
2013-05-01 04:32:00,68.0,66.0,29.96,NE,51,4.0,6.0,93,-99.99,,,-99.99,,2013-05-01 08:32:00,
2013-05-01 04:42:00,68.0,66.0,29.97,NE,51,4.0,5.0,93,-99.99,,,-99.99,,2013-05-01 08:42:00,
2013-05-01 04:53:00,68.0,66.0,29.97,NE,51,4.0,5.0,93,-99.99,,,-99.99,,2013-05-01 08:53:00,
2013-05-01 05:02:00,68.0,66.0,29.97,NE,51,4.0,5.0,93,-99.99,,,-99.99,,2013-05-01 09:02:00,
2013-05-01 05:12:00,68.0,66.0,29.97,NE,54,3.0,4.0,93,-99.99,,,-99.99,,2013-05-01 09:12:00,
2013-05-01 05:22:00,68.0,66.0,29.97,NE,54,3.0,4.0,93,-99.99,,,-99.99,,2013-05-01 09:22:00,
2013-05-01 05:33:00,69.0,67.0,29.97,ENE,60,3.0,4.0,93,-99.99,,,-99.99,,2013-05-01 09:33:00,
2013-05-01 05:43:00,69.0,67.0,29.98,NE,42,3.0,4.0,93,-99.99,,,-99.99,,2013-05-01 09:43:00,
2013-05-01 05:53:00,69.0,67.0,29.98,NE,42,3.0,4.0,93,-99.99,,,-99.99,,2013-05-01 09:53:00,
2013-05-01 06:03:00,69.0,67.0,29.97,NE,39,3.0,4.0,93,-99.99,,,-99.99,,2013-05-01 10:03:00,
2013-05-01 06:12:00,69.0,67.0,29.97,NE,49,4.0,6.0,93,-99.99,,,-99.99,,2013-05-01 10:12:00,
2013-05-01 06:22:00,69.0,67.0,29.97,NE,49,4.0,6.0,93,-99.99,,,-99.99,,2013-05-01 10:22:00,
2013-05-01 06:33:00,69.0,67.0,29.98,NE,55,3.0,5.0,93,-99.99,,,-99.99,,2013-05-01 10:33:00,
2013-05-01 06:42:00,69.0,67.0,29.98,ENE,65,2.0,3.0,93,-99.99,,,-99.99,,2013-05-01 10:42:00,
2013-05-01 06:53:00,69.0,67.0,29.98,ENE,65,2.0,3.0,93,-99.99,,,-99.99,,2013-05-01 10:53:00,
2013-05-01 07:03:00,69.0,67.0,29.98,NE,45,2.0,3.0,93,-99.99,,,-99.99,,2013-05-01 11:03:00,
2013-05-01 07:11:00,69.0,67.0,29.98,NE,44,3.0,4.0,93,-99.99,,,-99.99,,2013-05-01 11:11:00,
2013-05-01 07:22:00,69.0,67.0,29.98,NE,44,3.0,4.0,93,-99.99,,,-99.99,,2013-05-01 11:22:00,
2013-05-01 07:32:00,69.0,67.0,29.98,NE,44,3.0,4.0,93,-99.99,,,-99.99,,2013-05-01 11:32:00,
2013-05-01 07:42:00,69.0,67.0,29.99,East,85,2.0,3.0,93,-99.99,,,-99.99,,2013-05-01 11:42:00,
2013-05-01 07:52:00,69.0,67.0,29.99,East,85,2.0,3.0,93,-99.99,,,-99.99,,2013-05-01 11:52:00,
2013-05-01 08:02:00,69.0,67.0,30.00,South,173,1.0,1.0,93,-99.99,,,-99.99,,2013-05-01 12:02:00,
2013-05-01 08:11:00,68.0,66.0,30.01,SW,219,1.0,3.0,93,-99.99,,,-99.99,,2013-05-01 12:11:00,
2013-05-01 08:21:00,68.0,66.0,30.01,SW,219,1.0,3.0,93,-99.99,,,-99.99,,2013-05-01 12:21:00,
2013-05-01 08:32:00,69.0,67.0,30.02,ENE,76,3.0,45.0,93,-99.99,,,-99.99,,2013-05-01 12:32:00,
2013-05-01 08:42:00,69.0,67.0,30.02,ENE,76,3.0,45.0,93,-99.99,,,-99.99,,2013-05-01 12:42:00,
2013-05-01 08:52:00,70.0,68.0,30.02,East,91,3.0,7.0,93,-99.99,,,-99.99,,2013-05-01 12:52:00,
2013-05-01 09:01:00,70.0,68.0,30.02,East,91,3.0,7.0,93,-99.99,,,-99.99,,2013-05-01 13:01:00,
2013-05-01 09:11:00,71.0,69.0,30.01,ENE,74,5.0,8.0,93,-99.99,,,-99.99,,2013-05-01 13:11:00,
2013-05-01 09:22:00,71.0,69.0,30.01,ENE,74,5.0,8.0,93,-99.99,,,-99.99,,2013-05-01 13:22:00,
2013-05-01 09:32:00,72.0,70.0,30.01,East,80,5.0,7.0,93,-99.99,,,-99.99,,2013-05-01 13:32:00,
2013-05-01 09:42:00,72.0,70.0,30.01,East,92,5.0,9.0,93,-99.99,,,-99.99,,2013-05-01 13:42:00,
2013-05-01 09:52:00,72.0,70.0,30.01,East,92,5.0,9.0,93,-99.99,,,-99.99,,2013-05-01 13:52:00,
2013-05-01 10:02:00,72.0,70.0,30.01,East,87,6.0,10.0,92,-99.99,,,-99.99,,2013-05-01 14:02:00,
2013-05-01 10:11:00,73.0,70.0,30.01,East,89,7.0,9.0,90,-99.99,,,-99.99,,2013-05-01 14:11:00,
2013-05-01 10:22:00,73.0,70.0,30.01,East,89,7.0,9.0,90,-99.99,,,-99.99,,2013-05-01 14:22:00,
2013-05-01 10:32:00,73.0,70.0,30.01,East,89,7.0,9.0,90,-99.99,,,-99.99,,2013-05-01 14:32:00,
2013-05-01 10:42:00,74.0,69.0,30.02,ENE,77,6.0,10.0,85,-99.99,,,-99.99,,2013-05-01 14:42:00,
2013-05-01 10:52:00,74.0,69.0,30.02,ENE,77,6.0,10.0,85,-99.99,,,-99.99,,2013-05-01 14:52:00,
2013-05-01 11:01:00,75.0,69.0,30.03,East,88,6.0,10.0,84,-99.99,,,-99.99,,2013-05-01 15:01:00,
2013-05-01 11:11:00,75.0,69.0,30.04,ESE,112,5.0,16.0,82,-99.99,,,-99.99,,2013-05-01 15:11:00,
2013-05-01 11:22:00,75.0,69.0,30.04,ESE,112,5.0,16.0,82,-99.99,,,-99.99,,2013-05-01 15:22:00,
2013-05-01 11:33:00,75.0,69.0,30.05,ESE,123,5.0,8.0,81,-99.99,,,-99.99,,2013-05-01 15:33:00,
2013-05-01 11:43:00,76.0,69.0,30.05,ESE,105,5.0,8.0,80,-99.99,,,-99.99,,2013-05-01 15:43:00,
2013-05-01 11:53:00,76.0,69.0,30.05,ESE,105,5.0,8.0,80,-99.99,,,-99.99,,2013-05-01 15:53:00,
2013-05-01 12:03:00,76.0,69.0,30.05,ESE,105,8.0,12.0,77,-99.99,,,-99.99,,2013-05-01 16:03:00,
2013-05-01 12:12:00,76.0,69.0,30.05,ESE,106,7.0,11.0,79,-99.99,,,-99.99,,2013-05-01 16:12:00,
2013-05-01 12:22:00,76.0,69.0,30.05,ESE,106,7.0,11.0,79,-99.99,,,-99.99,,2013-05-01 16:22:00,
2013-05-01 12:32:00,75.0,69.0,30.05,ESE,122,5.0,10.0,82,-99.99,,,-99.99,,2013-05-01 16:32:00,
2013-05-01 12:42:00,74.0,70.0,30.04,SSW,198,3.0,8.0,85,-99.99,,,-99.99,,2013-05-01 16:42:00,
2013-05-01 12:53:00,74.0,70.0,30.04,SSW,198,3.0,8.0,85,-99.99,,,-99.99,,2013-05-01 16:53:00,
2013-05-01 13:02:00,74.0,69.0,30.04,ESE,121,5.0,9.0,84,-99.99,,,-99.99,,2013-05-01 17:02:00,
2013-05-01 13:12:00,75.0,69.0,30.03,ESE,111,7.0,44.0,82,-99.99,,,-99.99,,2013-05-01 17:12:00,
2013-05-01 13:22:00,75.0,69.0,30.03,ESE,111,7.0,44.0,82,-99.99,,,-99.99,,2013-05-01 17:22:00,
2013-05-01 13:32:00,75.0,69.0,30.03,ESE,111,7.0,44.0,82,-99.99,,,-99.99,,2013-05-01 17:32:00,
2013-05-01 13:42:00,75.0,68.0,30.02,East,80,6.0,10.0,78,-99.99,,,-99.99,,2013-05-01 17:42:00,
2013-05-01 13:52:00,75.0,68.0,30.02,East,80,6.0,10.0,78,-99.99,,,-99.99,,2013-05-01 17:52:00,
2013-05-01 14:02:00,75.0,68.0,30.03,NE,41,6.0,12.0,78,-99.99,,,-99.99,,2013-05-01 18:02:00,
2013-05-01 14:11:00,74.0,68.0,30.03,NNE,29,6.0,16.0,79,-99.99,,,-99.99,,2013-05-01 18:11:00,
2013-05-01 14:22:00,74.0,68.0,30.03,NNE,29,6.0,16.0,79,-99.99,,,-99.99,,2013-05-01 18:22:00,
2013-05-01 14:32:00,74.0,68.0,30.02,NE,42,7.0,13.0,80,-99.99,,,-99.99,,2013-05-01 18:32:00,
2013-05-01 14:42:00,75.0,68.0,30.02,NNE,33,9.0,13.0,79,-99.99,,,-99.99,,2013-05-01 18:42:00,
2013-05-01 14:52:00,75.0,68.0,30.02,NNE,33,9.0,13.0,79,-99.99,,,-99.99,,2013-05-01 18:52:00,
2013-05-01 15:02:00,76.0,68.0,30.01,NE,50,9.0,12.0,76,-99.99,,,-99.99,,2013-05-01 19:02:00,
2013-05-01 15:11:00,75.0,67.0,30.01,ENE,65,8.0,12.0,75,-99.99,,,-99.99,,2013-05-01 19:11:00,
2013-05-01 15:22:00,75.0,67.0,30.01,ENE,65,8.0,12.0,75,-99.99,,,-99.99,,2013-05-01 19:22:00,
2013-05-01 15:32:00,75.0,67.0,30.01,ENE,77,11.0,20.0,74,-99.99,,,-99.99,,2013-05-01 19:32:00,
2013-05-01 15:43:00,75.0,67.0,30.00,East,85,11.0,17.0,75,-99.99,,,-99.99,,2013-05-01 19:43:00,
2013-05-01 15:52:00,75.0,67.0,30.00,East,85,11.0,17.0,75,-99.99,,,-99.99,,2013-05-01 19:52:00,
2013-05-01 16:02:00,74.0,65.0,29.99,East,83,10.0,15.0,74,-99.99,,,-99.99,,2013-05-01 20:02:00,
2013-05-01 16:11:00,73.0,64.0,29.99,East,92,8.0,12.0,73,-99.99,,,-99.99,,2013-05-01 20:11:00,
2013-05-01 16:22:00,73.0,64.0,29.99,East,92,8.0,12.0,73,-99.99,,,-99.99,,2013-05-01 20:22:00,
2013-05-01 16:32:00,73.0,64.0,29.99,East,92,8.0,12.0,73,-99.99,,,-99.99,,2013-05-01 20:32:00,
2013-05-01 16:42:00,73.0,64.0,29.99,ENE,65,5.0,8.0,73,-99.99,,,-99.99,,2013-05-01 20:42:00,
2013-05-01 16:52:00,73.0,64.0,29.99,ENE,65,5.0,8.0,73,-99.99,,,-99.99,,2013-05-01 20:52:00,
2013-05-01 17:01:00,72.0,64.0,29.99,East,80,3.0,6.0,75,-99.99,,,-99.99,,2013-05-01 21:01:00,
2013-05-01 17:11:00,72.0,64.0,29.99,East,80,3.0,6.0,75,-99.99,,,-99.99,,2013-05-01 21:11:00,
2013-05-01 17:22:00,72.0,65.0,30.00,SSE,152,2.0,4.0,78,-99.99,,,-99.99,,2013-05-01 21:22:00,
2013-05-01 17:32:00,72.0,65.0,30.00,SSE,152,2.0,4.0,78,-99.99,,,-99.99,,2013-05-01 21:32:00,
2013-05-01 17:43:00,70.0,66.0,30.02,SSE,167,5.0,7.0,87,-99.99,,,-99.99,,2013-05-01 21:43:00,
2013-05-01 17:53:00,70.0,66.0,30.02,SSE,167,5.0,7.0,87,-99.99,,,-99.99,,2013-05-01 21:53:00,
2013-05-01 18:03:00,70.0,67.0,30.02,South,177,4.0,6.0,89,-99.99,,,-99.99,,2013-05-01 22:03:00,
2013-05-01 18:12:00,70.0,67.0,30.02,South,177,4.0,6.0,89,-99.99,,,-99.99,,2013-05-01 22:12:00,
2013-05-01 18:23:00,70.0,67.0,30.02,South,174,5.0,8.0,89,-99.99,,,-99.99,,2013-05-01 22:23:00,
2013-05-01 18:33:00,69.0,66.0,30.01,SE,126,2.0,4.0,90,-99.99,,,-99.99,,2013-05-01 22:33:00,
2013-05-01 18:42:00,69.0,66.0,30.01,SE,126,2.0,4.0,90,-99.99,,,-99.99,,2013-05-01 22:42:00,
2013-05-01 18:53:00,69.0,66.0,30.00,ENE,57,4.0,6.0,90,-99.99,,,-99.99,,2013-05-01 22:53:00,
2013-05-01 19:02:00,69.0,66.0,29.99,ENE,71,3.0,5.0,91,-99.99,,,-99.99,,2013-05-01 23:02:00,
2013-05-01 19:12:00,69.0,66.0,29.99,ENE,71,3.0,5.0,91,-99.99,,,-99.99,,2013-05-01 23:12:00,
2013-05-01 19:21:00,69.0,66.0,29.99,ESE,123,4.0,10.0,91,-99.99,,,-99.99,,2013-05-01 23:21:00,
2013-05-01 19:32:00,69.0,66.0,29.99,ESE,123,4.0,10.0,91,-99.99,,,-99.99,,2013-05-01 23:32:00,
2013-05-01 19:42:00,68.0,65.0,29.99,SE,139,2.0,5.0,91,-99.99,,,-99.99,,2013-05-01 23:42:00,
2013-05-01 19:52:00,68.0,65.0,29.99,SE,139,2.0,5.0,91,-99.99,,,-99.99,,2013-05-01 23:52:00,
2013-05-01 20:01:00,67.0,65.0,29.99,SW,232,1.0,2.0,91,-99.99,,,-99.99,,2013-05-02 00:01:00,
2013-05-01 20:11:00,67.0,65.0,29.99,SW,232,1.0,2.0,91,-99.99,,,-99.99,,2013-05-02 00:11:00,
2013-05-01 20:22:00,67.0,65.0,29.99,SSE,151,4.0,6.0,91,-99.99,,,-99.99,,2013-05-02 00:22:00,
2013-05-01 20:32:00,67.0,65.0,29.99,ENE,67,4.0,5.0,92,-99.99,,,-99.99,,2013-05-02 00:32:00,
2013-05-01 20:42:00,68.0,65.0,30.00,ENE,58,4.0,7.0,92,-99.99,,,-99.99,,2013-05-02 00:42:00,
2013-05-01 20:52:00,68.0,65.0,30.00,ENE,58,4.0,7.0,92,-99.99,,,-99.99,,2013-05-02 00:52:00,
2013-05-01 21:01:00,67.0,65.0,30.00,ENE,74,4.0,7.0,92,-99.99,,,-99.99,,2013-05-02 01:01:00,
2013-05-01 21:11:00,67.0,65.0,30.00,ENE,73,5.0,7.0,92,-99.99,,,-99.99,,2013-05-02 01:11:00,
2013-05-01 21:22:00,67.0,65.0,30.00,ENE,73,5.0,7.0,92,-99.99,,,-99.99,,2013-05-02 01:22:00,
2013-05-01 21:32:00,67.0,65.0,30.01,East,82,5.0,8.0,92,-99.99,,,-99.99,,2013-05-02 01:32:00,
2013-05-01 21:42:00,67.0,64.0,30.00,ENE,60,6.0,8.0,92,-99.99,,,-99.99,,2013-05-02 01:42:00,
2013-05-01 21:52:00,67.0,65.0,30.00,NE,54,5.0,10.0,92,-99.99,,,-99.99,,2013-05-02 01:52:00,
2013-05-01 22:02:00,67.0,65.0,30.00,NE,54,5.0,10.0,92,-99.99,,,-99.99,,2013-05-02 02:02:00,
2013-05-01 22:12:00,67.0,65.0,29.99,NE,55,5.0,9.0,92,-99.99,,,-99.99,,2013-05-02 02:12:00,
2013-05-01 22:22:00,67.0,65.0,29.99,NE,55,5.0,9.0,92,-99.99,,,-99.99,,2013-05-02 02:22:00,
2013-05-01 22:32:00,67.0,65.0,29.99,NE,55,5.0,9.0,92,-99.99,,,-99.99,,2013-05-02 02:32:00,
2013-05-01 22:42:00,67.0,65.0,29.99,NE,55,5.0,9.0,92,-99.99,,,-99.99,,2013-05-02 02:42:00,
2013-05-01 23:01:00,67.0,64.0,30.00,NE,41,5.0,8.0,92,-99.99,,,-99.99,,2013-05-02 03:01:00,
2013-05-01 23:11:00,67.0,64.0,30.00,NE,41,5.0,8.0,92,-99.99,,,-99.99,,2013-05-02 03:11:00,
2013-05-01 23:22:00,67.0,65.0,29.99,NE,43,6.0,8.0,92,-99.99,,,-99.99,,2013-05-02 03:22:00,
2013-05-01 23:33:00,67.0,65.0,29.99,NE,51,5.0,10.0,92,-99.99,,,-99.99,,2013-05-02 03:33:00,
2013-05-01 23:43:00,67.0,65.0,29.99,ENE,63,5.0,7.0,92,-99.99,,,-99.99,,2013-05-02 03:43:00,
2013-05-01 23:53:00,67.0,65.0,29.99,ENE,63,5.0,7.0,92,-99.99,,,-99.99,,2013-05-02 03:53:00,